| time (UTC) | temp C | wind direction | speed KPH | gust KPH | rain 1hr cm | rain 24hr cm | rain mn cm | humidity % | barometer mb |
| 20260902000055 | 26 | 323 | 0.0 | 0.0 | 0.00 | 0.00 | 0.00 | 90 | 1011.2 |
| 20260901234555 | 26 | 324 | 0.0 | 0.0 | 0.00 | 0.00 | 0.00 | 90 | 1011.3 |
| 20260901233101 | 27 | 323 | 0.0 | 0.0 | 0.00 | 0.00 | 0.00 | 89 | 1011.3 |
| 20260901231557 | 27 | 324 | 0.0 | 0.0 | 0.00 | 0.00 | 0.00 | 86 | 1011.4 |
| 20260901230055 | 28 | 323 | 0.0 | 0.0 | 0.00 | 0.00 | 0.00 | 84 | 1011.5 |
| 20260901224556 | 28 | 323 | 0.0 | 3.2 | 0.00 | 0.00 | 0.00 | 82 | 1011.5 |
| 20260901223057 | 28 | 323 | 0.0 | 0.0 | 0.00 | 0.00 | 0.00 | 83 | 1011.5 |
| 20260901221605 | 28 | 324 | 0.0 | 3.2 | 0.00 | 0.00 | 0.00 | 82 | 1011.5 |
| 20260901220055 | 28 | 323 | 0.0 | 3.2 | 0.00 | 0.00 | 0.00 | 82 | 1011.4 |
| 20260901214556 | 28 | 323 | 0.0 | 3.2 | 0.00 | 0.00 | 0.00 | 81 | 1011.4 |
| 20260901213100 | 28 | 324 | 1.6 | 3.2 | 0.00 | 0.00 | 0.00 | 82 | 1011.5 |
| 20260901211556 | 28 | 323 | 0.0 | 6.4 | 0.00 | 0.00 | 0.00 | 81 | 1011.7 |
| 20260901210056 | 27 | 324 | 0.0 | 6.4 | 0.00 | 0.00 | 0.00 | 81 | 1011.8 |
| 20260901204555 | 28 | 359 | 1.6 | 6.4 | 0.00 | 0.00 | 0.00 | 79 | 1011.7 |
| 20260901203102 | 28 | 14 | 0.0 | 4.8 | 0.00 | 0.00 | 0.00 | 79 | 1011.6 |
| 20260901201556 | 28 | 14 | 1.6 | 4.8 | 0.00 | 0.00 | 0.00 | 78 | 1011.7 |
| 20260901200106 | 28 | 14 | 3.2 | 6.4 | 0.00 | 0.00 | 0.00 | 79 | 1011.7 |
| 20260901194603 | 27 | 14 | 0.0 | 3.2 | 0.00 | 0.03 | 0.00 | 79 | 1011.7 |
| 20260901193102 | 27 | 14 | 0.0 | 4.8 | 0.00 | 0.03 | 0.00 | 82 | 1011.9 |
| 20260901191556 | 27 | 334 | 0.0 | 4.8 | 0.00 | 0.03 | 0.00 | 82 | 1012.3 |
| 20260901190112 | 26 | 58 | 1.6 | 8.0 | 0.00 | 0.03 | 0.00 | 83 | 1012.3 |
| 20260901184605 | 26 | 15 | 1.6 | 8.0 | 0.00 | 0.08 | 0.00 | 84 | 1012.6 |
| 20260901183057 | 25 | 319 | 0.0 | 6.4 | 0.00 | 0.08 | 0.00 | 85 | 1012.6 |
| 20260901181559 | 26 | 15 | 0.0 | 9.7 | 0.00 | 0.08 | 0.00 | 84 | 1012.6 |
| 20260901180100 | 26 | 300 | 1.6 | 6.4 | 0.00 | 0.08 | 0.00 | 83 | 1012.4 |
| 20260901174604 | 26 | 339 | 4.8 | 9.7 | 0.00 | 0.10 | 0.00 | 83 | 1012.5 |
| 20260901173059 | 25 | 323 | 0.0 | 6.4 | 0.00 | 0.10 | 0.00 | 86 | 1012.5 |
| 20260901171556 | 25 | 254 | 0.0 | 6.4 | 0.00 | 0.10 | 0.00 | 84 | 1012.6 |
| 20260901170156 | 26 | 317 | 1.6 | 6.4 | 0.00 | 0.10 | 0.00 | 83 | 1012.7 |
| 20260901164557 | 26 | 311 | 1.6 | 6.4 | 0.00 | 0.18 | 0.00 | 84 | 1012.8 |
| 20260901163103 | 26 | 297 | 1.6 | 4.8 | 0.00 | 0.18 | 0.00 | 84 | 1012.8 |
| 20260901161613 | 25 | 297 | 1.6 | 4.8 | 0.00 | 0.18 | 0.00 | 85 | 1012.9 |
| 20260901160057 | 25 | 297 | 0.0 | 4.8 | 0.00 | 0.18 | 0.00 | 85 | 1012.8 |
| 20260901154605 | 25 | 297 | 0.0 | 3.2 | 0.00 | 0.71 | 0.00 | 85 | 1012.9 |
| 20260901153122 | 25 | 297 | 0.0 | 6.4 | 0.00 | 0.71 | 0.00 | 85 | 1012.8 |
| 20260901151558 | 25 | 298 | 0.0 | 6.4 | 0.00 | 0.71 | 0.00 | 86 | 1012.7 |
| 20260901150058 | 25 | 331 | 0.0 | 3.2 | 0.00 | 0.71 | 0.00 | 87 | 1012.9 |
| 20260901144559 | 25 | 331 | 0.0 | 4.8 | 0.00 | 0.79 | 0.00 | 85 | 1012.8 |
| 20260901143059 | 25 | 331 | 0.0 | 6.4 | 0.00 | 0.79 | 0.00 | 86 | 1012.6 |
| 20260901141558 | 25 | 331 | 0.0 | 4.8 | 0.00 | 0.79 | 0.00 | 86 | 1012.5 |
| 20260901140058 | 25 | 293 | 1.6 | 4.8 | 0.00 | 0.79 | 0.00 | 87 | 1012.5 |
| 20260901134558 | 25 | 293 | 1.6 | 4.8 | 0.00 | 0.79 | 0.00 | 87 | 1012.5 |
| 20260901133058 | 25 | 293 | 0.0 | 4.8 | 0.00 | 0.79 | 0.00 | 86 | 1012.6 |
| 20260901131620 | 25 | 202 | 0.0 | 3.2 | 0.00 | 0.79 | 0.00 | 89 | 1012.5 |
| 20260901124602 | 23 | 139 | 0.0 | 3.2 | 0.00 | 0.81 | 0.00 | 91 | 1012.8 |
| 20260901123058 | 23 | 139 | 0.0 | 3.2 | 0.00 | 0.81 | 0.00 | 94 | 1012.8 |
| 20260901121558 | 22 | 139 | 0.0 | 0.0 | 0.00 | 0.81 | 0.00 | 95 | 1012.6 |
| 20260901120058 | 21 | 182 | 0.0 | 1.6 | 0.00 | 0.81 | 0.00 | 95 | 1012.6 |
| 20260901114558 | 21 | 182 | 0.0 | 0.0 | 0.00 | 0.94 | 0.00 | 94 | 1012.3 |
| 20260901113107 | 21 | 182 | 0.0 | 0.0 | 0.00 | 0.94 | 0.00 | 94 | 1012.2 |
| 20260901111606 | 21 | 182 | 0.0 | 4.8 | 0.00 | 0.94 | 0.00 | 94 | 1012.1 |
| 20260901110106 | 21 | 182 | 0.0 | 1.6 | 0.00 | 0.94 | 0.00 | 94 | 1012.0 |
| 20260901104604 | 21 | 143 | 0.0 | 4.8 | 0.00 | 1.30 | 0.00 | 94 | 1011.8 |
| 20260901103058 | 21 | 143 | 0.0 | 3.2 | 0.00 | 1.30 | 0.00 | 94 | 1011.8 |
| 20260901101607 | 21 | 143 | 0.0 | 0.0 | 0.00 | 1.30 | 0.00 | 93 | 1011.7 |
| 20260901100109 | 21 | 143 | 0.0 | 0.0 | 0.00 | 1.30 | 0.00 | 93 | 1011.7 |
| 20260901094603 | 22 | 143 | 0.0 | 4.8 | 0.00 | 1.32 | 0.00 | 93 | 1011.6 |
| 20260901093058 | 22 | 143 | 0.0 | 4.8 | 0.00 | 1.32 | 0.00 | 93 | 1011.7 |
| 20260901091559 | 22 | 143 | 0.0 | 4.8 | 0.00 | 1.32 | 0.00 | 92 | 1011.6 |
| 20260901084609 | 21 | 142 | 0.0 | 4.8 | 0.00 | 1.35 | 0.00 | 92 | 1011.4 |
| 20260901083100 | 22 | 142 | 0.0 | 6.4 | 0.00 | 1.35 | 0.00 | 91 | 1011.4 |
| 20260901081605 | 22 | 142 | 0.0 | 4.8 | 0.00 | 1.35 | 0.00 | 90 | 1011.2 |
| 20260901080059 | 22 | 142 | 0.0 | 6.4 | 0.00 | 1.35 | 0.00 | 90 | 1011.2 |
| 20260901074559 | 22 | 142 | 0.0 | 9.7 | 0.00 | 1.35 | 0.00 | 90 | 1011.2 |
| 20260901073059 | 22 | 139 | 1.6 | 9.7 | 0.00 | 1.35 | 0.00 | 89 | 1011.3 |
| 20260901071559 | 22 | 143 | 3.2 | 8.0 | 0.00 | 1.35 | 0.00 | 89 | 1011.4 |
| 20260901070059 | 22 | 144 | 3.2 | 14.5 | 0.00 | 1.35 | 0.00 | 89 | 1011.2 |
| 20260901064559 | 22 | 198 | 1.6 | 8.0 | 0.00 | 1.42 | 0.00 | 88 | 1011.2 |
| 20260901063102 | 22 | 142 | 1.6 | 14.5 | 0.00 | 1.42 | 0.00 | 88 | 1011.3 |
| 20260901061613 | 22 | 160 | 1.6 | 9.7 | 0.00 | 1.42 | 0.00 | 87 | 1011.6 |
| 20260901060103 | 22 | 145 | 4.8 | 14.5 | 0.00 | 1.42 | 0.00 | 87 | 1011.6 |
| 20260901054609 | 22 | 155 | 3.2 | 12.9 | 0.00 | 1.57 | 0.00 | 87 | 1011.8 |
| 20260901053122 | 22 | 159 | 4.8 | 14.5 | 0.00 | 1.57 | 0.00 | 87 | 1012.0 |
| 20260901051603 | 22 | 167 | 6.4 | 17.7 | 0.00 | 1.57 | 0.00 | 87 | 1012.1 |
| 20260901050100 | 22 | 152 | 4.8 | 8.0 | 0.00 | 1.57 | 0.00 | 87 | 1012.1 |
| 20260901044559 | 22 | 156 | 3.2 | 12.9 | 0.00 | 1.57 | 0.00 | 87 | 1012.1 |
| 20260901043102 | 22 | 156 | 4.8 | 11.3 | 0.00 | 1.57 | 0.00 | 88 | 1012.0 |
| 20260901041609 | 22 | 158 | 0.0 | 9.7 | 0.00 | 1.57 | 0.00 | 89 | 1012.1 |
| 20260901040121 | 22 | 151 | 3.2 | 9.7 | 0.00 | 1.57 | 0.00 | 88 | 1012.2 |
| 20260901040002 | 22 | 151 | 1.6 | 9.7 | 0.00 | 1.57 | 0.00 | 88 | 1012.1 |
| 20260901034600 | 22 | 164 | 1.6 | 11.3 | 0.00 | 1.57 | 1.57 | 88 | 1012.2 |
| 20260901033115 | 22 | 176 | 1.6 | 16.1 | 0.00 | 1.57 | 1.57 | 88 | 1012.3 |
| 20260901031612 | 22 | 157 | 4.8 | 11.3 | 0.00 | 1.57 | 1.57 | 89 | 1012.6 |
| 20260901024601 | 22 | 151 | 1.6 | 9.7 | 0.00 | 1.57 | 1.57 | 91 | 1012.7 |
| 20260901023101 | 22 | 165 | 1.6 | 11.3 | 0.00 | 1.57 | 1.57 | 92 | 1012.7 |
| 20260901021600 | 22 | 169 | 0.0 | 3.2 | 0.00 | 1.57 | 1.57 | 92 | 1012.6 |
| 20260901014601 | 22 | 139 | 0.0 | 6.4 | 0.00 | 1.57 | 1.57 | 93 | 1012.4 |
| 20260901013107 | 22 | 92 | 0.0 | 3.2 | 0.00 | 1.57 | 1.57 | 94 | 1012.4 |
| 20260901011602 | 22 | 191 | 0.0 | 4.8 | 0.00 | 1.57 | 1.57 | 94 | 1012.4 |
| 20260901010101 | 22 | 121 | 0.0 | 11.3 | 0.00 | 1.57 | 1.57 | 94 | 1012.4 |
| 20260901004601 | 22 | 97 | 0.0 | 4.8 | 0.00 | 1.68 | 1.57 | 95 | 1012.3 |
| 20260901003105 | 22 | 49 | 0.0 | 6.4 | 0.00 | 1.68 | 1.57 | 95 | 1012.3 |
| 20260901001500 | 22 | 120 | 0.0 | 3.2 | 0.00 | 1.68 | 1.57 | 95 | 1012.6 |